{"data":{"norad_id":62439,"epoch":"2026-09-21T20:41:11.837184Z","epoch_age_seconds":56764,"freshness":"FRESH","line1":"1 62439U 24251H   26264.86194256  .00019325  00000+0  58135-3 0  9993","line2":"2 62439  53.1571 141.2308 0002970 151.8281 208.2883 15.34413046 98022","mean_motion":15.34413046,"eccentricity":0.000297,"inclination_deg":53.1571,"raan_deg":141.2308,"arg_perigee_deg":151.8281,"mean_anomaly_deg":208.2883,"bstar":0.00058135,"rev_number":9802,"period_min":93.84696016199,"perigee_km":460.63274698541,"apogee_km":464.69618305563,"semimajor_km":6840.8014650205,"source":"CELESTRAK","updated_at":"2026-09-22T09:00:49.581320Z"}}